Voltar ao catálogo

COSMOS 1249 COOLANT

AtivoLEO
NORAD 26503·DEBRIS·🇷🇺 Russia

Lançado Mar 5, 1981 de Baikonur Cosmodrome

Loading…

Próximas Passagens (próximas 24 horas)

TLE

AtualizadoSource: Space-Track

Época: Sep 13, 2026, 04:52 UTC

1 26503U 81021E   26256.20329066  .00000044  00000-0  10399-3 0  9990
2 26503  64.9578  64.5963 0061472 238.9819 296.7423 13.92183192345408

Acompanhe COSMOS 1249 COOLANT em tempo real com AllMySat

Download on the App Store